This is the latest recevied weather packets stored in our database for station/object K8RLH. If no packets are shown the sender has not sent any weather packets the latest 1 day(s).
| Time | Temp. | Humidity | Pressure | Rain* | Wind** | Luminosity | Snow |
|---|---|---|---|---|---|---|---|
| 1778074288 | 18.33° C | 78% | 1016.7 hPa | 0 mm | - | 101 W/m² | - |
| 1778073682 | 18.33° C | 78% | 1016.6 hPa | 0 mm | - | 57 W/m² | - |
| 1778072773 | 18.33° C | 76% | 1017.1 hPa | 0 mm | - | 38 W/m² | - |
| 1778071866 | 18.33° C | 77% | 1017.1 hPa | 0 mm | - | 38 W/m² | - |
| 1778071261 | 18.33° C | 76% | 1017 hPa | 0 mm | - | 18 W/m² | - |
| 1778070657 | 18.33° C | 76% | 1017 hPa | 0 mm | - | 24 W/m² | - |
| 1778069143 | 18.33° C | 76% | 1016.4 hPa | 0 mm | - | 42 W/m² | - |
| 1778068236 | 17.78° C | 76% | 1016.7 hPa | 0 mm | - | 29 W/m² | - |
| 1778067026 | 18.33° C | 75% | 1016.5 hPa | 0 mm | - | 11 W/m² | - |
| 1778066118 | 18.33° C | 74% | 1016.3 hPa | 0 mm | - | 11 W/m² | - |
| 1778064905 | 18.33° C | 74% | 1016 hPa | 0 mm | - | 2 W/m² | - |
| 1778064603 | 18.33° C | 74% | 1016 hPa | 0 mm | - | 2 W/m² | - |
| 1778063392 | 18.33° C | 73% | 1015.5 hPa | 0 mm | - | 0 W/m² | - |
| 1778063090 | 18.33° C | 73% | 1015.4 hPa | 0 mm | - | 0 W/m² | - |
| 1778062787 | 18.33° C | 73% | 1015.4 hPa | 0 mm | - | 0 W/m² | - |
| 1778062181 | 18.33° C | 73% | 1015.3 hPa | 0 mm | - | 0 W/m² | - |
| 1778061577 | 18.33° C | 73% | 1015.1 hPa | 0 mm | - | 0 W/m² | - |
| 1778060971 | 18.33° C | 73% | 1015.5 hPa | 0 mm | - | 0 W/m² | - |
| 1778060670 | 18.33° C | 73% | 1015.5 hPa | 0 mm | - | 0 W/m² | - |
| 1778060367 | 18.33° C | 73% | 1015.2 hPa | 0 mm | - | 0 W/m² | - |
| 1778060065 | 18.33° C | 73% | 1015.4 hPa | 0 mm | - | 0 W/m² | - |
| 1778059460 | 18.33° C | 73% | 1015.2 hPa | 0 mm | - | 0 W/m² | - |
| 1778057035 | 18.33° C | 73% | 1015.5 hPa | 0 mm | - | 0 W/m² | - |
| 1778056732 | 18.33° C | 72% | 1015.5 hPa | 0 mm | - | 0 W/m² | - |
| 1778055519 | 18.89° C | 71% | 1015.7 hPa | 0 mm | - | 0 W/m² | - |
* Rain latest hour (hover to see other rain measurements)
** Current wind speed in m/s (hover to see current wind gust speed)